Location: Bauerbach
(50.4985°N, 10.3912°E)
Time: 19:34:06
(UTC+00:00)

NOSS 8 (F) - Pass Details

Date: 13 January 2026
Orbit: 363 x 1535 km, 63.3° (Epoch: 15 February)

Event Time Altitude Azimuth Distance (km) Brightness Sun altitude
Exits shadow 05:58:09 17° 319° (NW) 1,036 5.7 -11.7°
Maximum altitude 06:00:17 80° 46° (NE) 402 4.1 -11.4°
Drops below altitude 10° 06:03:35 10° 134° (SE) 1,549 8.3 -10.9°
Sets 06:05:53 0° 135° (SE) 2,547 9.6 -10.5°
